When you browse on this site, cookies collect data to enhance your experience and personalize the content and advertising you see.
Visit our Privacy Policy to learn more. By continuing to use the site, you agree to this use of cookies and data.
  • In Hungary
  • List of Countries
  • For 7 days
  • Water Temperature
  • Satellite Maps
  • Weather Map
  • News
  • Weather Widgets
  • user-avatar
    Login

    Hourly Weather Dimbokro

    Today, 18 February, Monday

    Time Temperature Precipitation Wind Pressure Humidity
    00:00 +30°C° 0 mm 2 mps 751 mmHg 73%
    01:00 +29°C° 0 mm 2 mps 750 mmHg 75%
    02:00 +29°C° 0 mm 2 mps 750 mmHg 78%
    03:00 +28°C° 0 mm 1 mps 750 mmHg 81%
    04:00 +28°C° 0 mm 1 mps 750 mmHg 82%
    05:00 +28°C° 0 mm 1 mps 750 mmHg 84%
    06:00 +28°C° 0 mm 1 mps 750 mmHg 85%
    07:00 +29°C° 0.2 mm 1 mps 751 mmHg 79%
    08:00 +30°C° 0.2 mm 2 mps 751 mmHg 74%
    09:00 +31°C° 0.2 mm 2 mps 751 mmHg 68%
    10:00 +32°C° 0 mm 2 mps 751 mmHg 63%
    11:00 +35°C° 0 mm 2 mps 751 mmHg 58%
    12:00 +35°C° 0 mm 1 mps 750 mmHg 53%
    13:00 +37°C° 0 mm 2 mps 750 mmHg 48%
    14:00 +38°C° 0 mm 2 mps 749 mmHg 43%
    15:00 +40°C° 0 mm 2 mps 748 mmHg 38%
    16:00 +38°C° 0 mm 2 mps 748 mmHg 41%
    17:00 +37°C° 0 mm 2 mps 748 mmHg 44%
    18:00 +36°C° 0 mm 2 mps 748 mmHg 47%
    19:00 +35°C° 0 mm 2 mps 749 mmHg 53%
    20:00 +33°C° 0 mm 3 mps 749 mmHg 59%
    21:00 +31°C° 0 mm 3 mps 750 mmHg 65%
    22:00 +30°C° 0 mm 3 mps 750 mmHg 68%
    23:00 +30°C° 0 mm 3 mps 750 mmHg 71%

    Tomorrow, 19 February, Tuesday

    Time Temperature Precipitation Wind Pressure Humidity
    00:00 +29°C° 0 mm 2 mps 750 mmHg 74%
    01:00 +29°C° 0 mm 2 mps 750 mmHg 76%
    02:00 +28°C° 0 mm 2 mps 749 mmHg 78%
    03:00 +28°C° 0 mm 2 mps 749 mmHg 80%
    04:00 +27°C° 0 mm 2 mps 749 mmHg 81%
    05:00 +27°C° 0 mm 1 mps 749 mmHg 83%
    06:00 +27°C° 0 mm 1 mps 749 mmHg 85%
    07:00 +28°C° 0 mm 1 mps 750 mmHg 78%
    08:00 +30°C° 0 mm 2 mps 750 mmHg 71%
    09:00 +31°C° 0 mm 2 mps 751 mmHg 64%
    10:00 +34°C° 0 mm 2 mps 751 mmHg 56%
    11:00 +37°C° 0 mm 2 mps 750 mmHg 48%
    12:00 +39°C° 0 mm 2 mps 750 mmHg 40%
    13:00 +39°C° 0 mm 2 mps 749 mmHg 39%
    14:00 +39°C° 0 mm 2 mps 748 mmHg 38%
    15:00 +39°C° 0 mm 2 mps 747 mmHg 38%
    16:00 +38°C° 0 mm 2 mps 747 mmHg 39%
    17:00 +38°C° 0 mm 2 mps 747 mmHg 41%
    18:00 +36°C° 0 mm 1 mps 747 mmHg 43%
    19:00 +35°C° 0.4 mm 2 mps 748 mmHg 52%
    20:00 +32°C° 0.4 mm 2 mps 748 mmHg 61%
    21:00 +30°C° 0.4 mm 2 mps 749 mmHg 70%
    22:00 +30°C° 0.1 mm 2 mps 749 mmHg 73%
    23:00 +29°C° 0.1 mm 2 mps 750 mmHg 76%

    Day after tomorrow, 20 February, Wednesday

    Time Temperature Precipitation Wind Pressure Humidity
    00:00 +28°C° 0.1 mm 2 mps 750 mmHg 80%
    01:00 +28°C° 0.6 mm 2 mps 750 mmHg 82%
    02:00 +28°C° 0.6 mm 1 mps 750 mmHg 84%
    03:00 +27°C° 0.6 mm 1 mps 749 mmHg 87%
    04:00 +27°C° 0 mm 1 mps 749 mmHg 88%
    05:00 +27°C° 0 mm 1 mps 749 mmHg 88%
    06:00 +26°C° 0 mm 1 mps 749 mmHg 89%
    07:00 +28°C° 0 mm 2 mps 750 mmHg 82%
    08:00 +29°C° 0 mm 2 mps 750 mmHg 75%
    09:00 +31°C° 0 mm 2 mps 751 mmHg 68%
    10:00 +34°C° 0 mm 2 mps 750 mmHg 58%
    11:00 +37°C° 0 mm 2 mps 750 mmHg 48%
    12:00 +39°C° 0 mm 2 mps 750 mmHg 38%
    13:00 +41°C° 0 mm 2 mps 749 mmHg 34%
    14:00 +42°C° 0 mm 1 mps 748 mmHg 30%
    15:00 +43°C° 0 mm 1 mps 747 mmHg 26%
    16:00 +40°C° 0.4 mm 1 mps 747 mmHg 34%
    17:00 +36°C° 0.4 mm 1 mps 747 mmHg 42%
    18:00 +34°C° 0.4 mm 1 mps 747 mmHg 50%
    19:00 +32°C° 3.3 mm 2 mps 748 mmHg 60%
    20:00 +30°C° 3.3 mm 2 mps 749 mmHg 70%
    21:00 +29°C° 3.3 mm 3 mps 750 mmHg 80%
    22:00 +28°C° 2.4 mm 2 mps 750 mmHg 83%
    23:00 +28°C° 2.4 mm 2 mps 751 mmHg 85%

    21 February, Thursday

    Time Temperature Precipitation Wind Pressure Humidity
    00:00 +28°C° 2.4 mm 1 mps 751 mmHg 87%
    01:00 +28°C° 2.6 mm 1 mps 751 mmHg 88%
    02:00 +28°C° 2.6 mm 1 mps 750 mmHg 88%
    03:00 +26°C° 2.6 mm 0 mps 750 mmHg 89%
    04:00 +26°C° 0.4 mm 0 mps 750 mmHg 89%
    05:00 +26°C° 0.4 mm 0 mps 751 mmHg 89%
    06:00 +25°C° 0.4 mm 0 mps 751 mmHg 89%
    07:00 +26°C° 0 mm 0 mps 752 mmHg 86%
    08:00 +27°C° 0 mm 0 mps 752 mmHg 83%
    09:00 +27°C° 0 mm 0 mps 753 mmHg 80%
    10:00 +29°C° 0 mm 0 mps 752 mmHg 72%
    11:00 +32°C° 0 mm 1 mps 752 mmHg 64%
    12:00 +34°C° 0 mm 1 mps 752 mmHg 56%
    13:00 +35°C° 0 mm 1 mps 751 mmHg 53%
    14:00 +35°C° 0 mm 1 mps 750 mmHg 49%
    15:00 +36°C° 0 mm 1 mps 749 mmHg 45%
    16:00 +35°C° 0 mm 1 mps 749 mmHg 47%
    17:00 +35°C° 0 mm 1 mps 749 mmHg 49%
    18:00 +32°C° 0 mm 0 mps 749 mmHg 51%
    19:00 +31°C° 0 mm 0 mps 750 mmHg 54%
    20:00 +30°C° 0 mm 0 mps 751 mmHg 58%
    21:00 +31°C° 0 mm 1 mps 752 mmHg 61%
    22:00 +30°C° 0 mm 1 mps 752 mmHg 66%
    23:00 +30°C° 0 mm 1 mps 752 mmHg 70%

    22 February, Friday

    Time Temperature Precipitation Wind Pressure Humidity
    00:00 +29°C° 0 mm 2 mps 752 mmHg 75%
    01:00 +29°C° 0 mm 2 mps 751 mmHg 77%
    02:00 +29°C° 0 mm 2 mps 751 mmHg 79%
    03:00 +28°C° 0 mm 2 mps 750 mmHg 81%
    04:00 +28°C° 0 mm 2 mps 750 mmHg 83%
    05:00 +27°C° 0 mm 1 mps 750 mmHg 84%
    06:00 +27°C° 0 mm 1 mps 751 mmHg 86%
    07:00 +28°C° 0 mm 1 mps 751 mmHg 81%
    08:00 +29°C° 0 mm 1 mps 752 mmHg 75%
    09:00 +31°C° 0 mm 2 mps 752 mmHg 70%
    10:00 +34°C° 0 mm 1 mps 752 mmHg 59%
    11:00 +37°C° 0 mm 1 mps 751 mmHg 49%
    12:00 +38°C° 0 mm 0 mps 751 mmHg 38%
    13:00 +41°C° 0 mm 1 mps 750 mmHg 35%
    14:00 +41°C° 0 mm 1 mps 749 mmHg 31%
    15:00 +41°C° 0 mm 2 mps 748 mmHg 28%
    16:00 +40°C° 0 mm 2 mps 748 mmHg 31%
    17:00 +39°C° 0 mm 1 mps 748 mmHg 34%
    18:00 +37°C° 0 mm 1 mps 748 mmHg 37%
    19:00 +35°C° 0 mm 1 mps 749 mmHg 39%
    20:00 +34°C° 0 mm 1 mps 749 mmHg 42%
    21:00 +33°C° 0 mm 1 mps 750 mmHg 44%
    22:00 +31°C° 0 mm 2 mps 750 mmHg 57%
    23:00 +30°C° 0 mm 2 mps 750 mmHg 69%

    23 February, Saturday

    Time Temperature Precipitation Wind Pressure Humidity
    00:00 +28°C° 0 mm 3 mps 750 mmHg 81%
    01:00 +28°C° 0 mm 3 mps 750 mmHg 82%
    02:00 +28°C° 0 mm 2 mps 749 mmHg 83%
    03:00 +28°C° 0 mm 2 mps 749 mmHg 84%
    04:00 +28°C° 0 mm 2 mps 750 mmHg 83%
    05:00 +28°C° 0 mm 2 mps 750 mmHg 82%
    06:00 +28°C° 0 mm 2 mps 751 mmHg 81%
    07:00 +28°C° 0.1 mm 2 mps 751 mmHg 80%
    08:00 +29°C° 0.1 mm 2 mps 752 mmHg 79%
    09:00 +29°C° 0.1 mm 2 mps 752 mmHg 78%
    10:00 +30°C° 0 mm 1 mps 752 mmHg 71%
    11:00 +32°C° 0 mm 1 mps 751 mmHg 64%
    12:00 +33°C° 0 mm 1 mps 751 mmHg 56%
    13:00 +36°C° 0 mm 1 mps 750 mmHg 48%
    14:00 +36°C° 0 mm 0 mps 749 mmHg 40%
    15:00 +38°C° 0 mm 0 mps 748 mmHg 32%
    16:00 +36°C° 0 mm 0 mps 748 mmHg 35%
    17:00 +35°C° 0 mm 0 mps 748 mmHg 37%
    18:00 +35°C° 0 mm 1 mps 748 mmHg 40%
    19:00 +34°C° 0 mm 1 mps 749 mmHg 43%
    20:00 +33°C° 0 mm 1 mps 749 mmHg 47%
    21:00 +31°C° 0 mm 2 mps 750 mmHg 50%
    22:00 +30°C° 0 mm 2 mps 750 mmHg 59%
    23:00 +30°C° 0 mm 2 mps 749 mmHg 68%
    Show more